Atlas Copco Coolers Catalog (Air Cooling) Part Numbers Full List

Genuine Air After Cooler for Atlas Copco

Here is the Atlas Copco Air Cooler catalog with part numbers list. Chengdu Pudding Mechatronic Co.CPMC air compressors service team keep updating informative info for international buyers who want import quality compressors and related spare parts from China. In this post you will get most air coolers part numbers. 

Importance of Atlas air compressor air-cooled cooler Maintenance:

Atlas air compressor air-cooled cooler means that the cooling medium of this cooler is air, which means that it uses a fan to blow air, and the wind exchanges heat with the cooler to take away the heat.

The heat dissipation effect of Atlas air compressor air-cooled cooler directly affects the operating temperature of the air compressor. The plate-fin structure is easy to accumulate dust, so the maintenance of the cooler needs to be blown from top to bottom with dry compressed air of more than 0.4Mpa per shift. The cooler of the diesel-driven screw is upright. When maintaining, you need to use dry compressed air above 0.4Mpa to blow from the outside to the inside. After blowing, clean the dust and particles in the air duct to prevent it from being blown by the fan again. Blowing into the cooler causes blockage and causes the machine to become hot. If the machine is used in a harsh environment and the surface of the cooler is full of greasy dirt, it must be cleaned with a carbon cleaner.

Atlas Copco Air Compressors Air Coolers Catalog with Part Numbers Full list

Atlas Copco Air Cooler Part Numbers  Part Numbers Part Numbers
Atlas Copco Air Cooler PN: 1091631933  Part Numbers 1091-6319-33
Atlas Copco Air Cooler PN: 1092000169  Part Numbers 1092-0001-69
Atlas Copco Air Cooler PN: 1092000400  Part Numbers 1092-0004-00
Atlas Copco Air Cooler PN: 1092000484  Part Numbers 1092-0004-84
Atlas Copco Air Cooler PN: 1092000500  Part Numbers 1092-0005-00
Atlas Copco Air Cooler PN: 1092000783  Part Numbers 1092-0007-83
Atlas Copco Air Cooler PN: 1092002966  Part Numbers 1092-0029-66
Atlas Copco Air Cooler PN: 1092002973  Part Numbers 1092-0029-73
Atlas Copco Air Cooler PN: 1092002974  Part Numbers 1092-0029-74
Atlas Copco Air Cooler PN: 1092005069  Part Numbers 1092-0050-69
Atlas Copco Air Cooler PN: 1092005673  Part Numbers 1092-0056-73
Atlas Copco Air Cooler PN: 1092005674  Part Numbers 1092-0056-74
Atlas Copco Air Cooler PN: 1092005675  Part Numbers 1092-0056-75
Atlas Copco Air Cooler PN: 1092005676  Part Numbers 1092-0056-76
Atlas Copco Air Cooler PN: 1092005677  Part Numbers 1092-0056-77
Atlas Copco Air Cooler PN: 1092005678  Part Numbers 1092-0056-78
Atlas Copco Air Cooler PN: 1092006191  Part Numbers 1092-0061-91
Atlas Copco Air Cooler PN: 1092006192  Part Numbers 1092-0061-92
Atlas Copco Air Cooler PN: 1092013100  Part Numbers 1092-0131-00
Atlas Copco Air Cooler PN: 1092034837  Part Numbers 1092-0348-37
Atlas Copco Air Cooler PN: 1092037208  Part Numbers 1092-0372-08
Atlas Copco Air Cooler PN: 1092037344  Part Numbers 1092-0373-44
Atlas Copco Air Cooler PN: 1092040100  Part Numbers 1092-0401-00
Atlas Copco Air Cooler PN: 1092042325  Part Numbers 1092-0423-25
Atlas Copco Air Cooler PN: 1092050408  Part Numbers 1092-0504-08
Atlas Copco Air Cooler PN: 1092067800  Part Numbers 1092-0678-00
Atlas Copco Air Cooler PN: 1092068000  Part Numbers 1092-0680-00
Atlas Copco Air Cooler PN: 1092170031  Part Numbers 1092-1700-31
Atlas Copco Air Cooler PN: 1092170034  Part Numbers 1092-1700-34
Atlas Copco Air Cooler PN: 1092170037  Part Numbers 1092-1700-37
Atlas Copco Air Cooler PN: 1092200285  Part Numbers 1092-2002-85
Atlas Copco Air Cooler PN: 1092200286  Part Numbers 1092-2002-86
Atlas Copco Air Cooler PN: 1092309900  Part Numbers 1092-3099-00
Atlas Copco Air Cooler PN: 1092316000  Part Numbers 1092-3160-00
Atlas Copco Air Cooler PN: 1096001370  Part Numbers 1096-0013-70
Atlas Copco Air Cooler PN: 1202604500  Part Numbers 1202-6045-00
Atlas Copco Air Cooler PN: 1202766208  Part Numbers 1202-7662-08
Atlas Copco Air Cooler PN: 1202772200  Part Numbers 1202-7722-00
Atlas Copco Air Cooler PN: 1202804092  Part Numbers 1202-8040-92
Atlas Copco Air Cooler PN: 1202821408  Part Numbers 1202-8214-08
Atlas Copco Air Cooler PN: 1202915808  Part Numbers 1202-9158-08
Atlas Copco Air Cooler PN: 1202973500  Part Numbers 1202-9735-00
Atlas Copco Air Cooler PN: 1202973900  Part Numbers 1202-9739-00
Atlas Copco Air Cooler PN: 1202984988  Part Numbers 1202-9849-88
Atlas Copco Air Cooler PN: 1202985088  Part Numbers 1202-9850-88
Atlas Copco Air Cooler PN: 1202985288  Part Numbers 1202-9852-88
Atlas Copco Air Cooler PN: 1202992008  Part Numbers 1202-9920-08
Atlas Copco Air Cooler PN: 1320779420  Part Numbers 1320-7794-20
Atlas Copco Air Cooler PN: 1420081234  Part Numbers 1420-0812-34
Atlas Copco Air Cooler PN: 1420081337  Part Numbers 1420-0813-37
Atlas Copco Air Cooler PN: 1420081890  Part Numbers 1420-0818-90
Atlas Copco Air Cooler PN: 1420081891  Part Numbers 1420-0818-91
Atlas Copco Air Cooler PN: 1503286200  Part Numbers 1503-2862-00
Atlas Copco Air Cooler PN: 1503286300  Part Numbers 1503-2863-00
Atlas Copco Air Cooler PN: 1503288400  Part Numbers 1503-2884-00
Atlas Copco Air Cooler PN: 1503312600  Part Numbers 1503-3126-00
Atlas Copco Air Cooler PN: 1503313400  Part Numbers 1503-3134-00
Atlas Copco Air Cooler PN: 1604052801  Part Numbers 1604-0528-01
Atlas Copco Air Cooler PN: 1604110900  Part Numbers 1604-1109-00
Atlas Copco Air Cooler PN: 1604249501  Part Numbers 1604-2495-01
Atlas Copco Air Cooler PN: 1604249902  Part Numbers 1604-2499-02
Atlas Copco Air Cooler PN: 1604267602  Part Numbers 1604-2676-02
Atlas Copco Air Cooler PN: 1604268001  Part Numbers 1604-2680-01
Atlas Copco Air Cooler PN: 1604396802  Part Numbers 1604-3968-02
Atlas Copco Air Cooler PN: 1604396902  Part Numbers 1604-3969-02
Atlas Copco Air Cooler PN: 1604474700  Part Numbers 1604-4747-00
Atlas Copco Air Cooler PN: 1604929300  Part Numbers 1604-9293-00
Atlas Copco Air Cooler PN: 1604929400  Part Numbers 1604-9294-00
Atlas Copco Air Cooler PN: 1606135400  Part Numbers 1606-1354-00
Atlas Copco Air Cooler PN: 1606381200  Part Numbers 1606-3812-00
Atlas Copco Air Cooler PN: 1606381500  Part Numbers 1606-3815-00
Atlas Copco Air Cooler PN: 1610174500  Part Numbers 1610-1745-00
Atlas Copco Air Cooler PN: 1610288800  Part Numbers 1610-2888-00
Atlas Copco Air Cooler PN: 1613421100  Part Numbers 1613-4211-00
Atlas Copco Air Cooler PN: 1613562500  Part Numbers 1613-5625-00
Atlas Copco Air Cooler PN: 1613679200  Part Numbers 1613-6792-00
Atlas Copco Air Cooler PN: 1613688800  Part Numbers 1613-6888-00
Atlas Copco Air Cooler PN: 1613688900  Part Numbers 1613-6889-00
Atlas Copco Air Cooler PN: 1613702288  Part Numbers 1613-7022-88
Atlas Copco Air Cooler PN: 1613737300  Part Numbers 1613-7373-00
Atlas Copco Air Cooler PN: 1613782202  Part Numbers 1613-7822-02
Atlas Copco Air Cooler PN: 1613782203  Part Numbers 1613-7822-03
Atlas Copco Air Cooler PN: 1613830300  Part Numbers 1613-8303-00
Atlas Copco Air Cooler PN: 1613830400  Part Numbers 1613-8304-00
Atlas Copco Air Cooler PN: 1613836400  Part Numbers 1613-8364-00
Atlas Copco Air Cooler PN: 1613836402  Part Numbers 1613-8364-02
Atlas Copco Air Cooler PN: 1613836403  Part Numbers 1613-8364-03
Atlas Copco Air Cooler PN: 1613836500  Part Numbers 1613-8365-00
Atlas Copco Air Cooler PN: 1613836502  Part Numbers 1613-8365-02
Atlas Copco Air Cooler PN: 1613836600  Part Numbers 1613-8366-00
Atlas Copco Air Cooler PN: 1613836602  Part Numbers 1613-8366-02
Atlas Copco Air Cooler PN: 1613836603  Part Numbers 1613-8366-03
Atlas Copco Air Cooler PN: 1613874488  Part Numbers 1613-8744-88
Atlas Copco Air Cooler PN: 1613875086  Part Numbers 1613-8750-86
Atlas Copco Air Cooler PN: 1613875088  Part Numbers 1613-8750-88
Atlas Copco Air Cooler PN: 1613950700  Part Numbers 1613-9507-00
Atlas Copco Air Cooler PN: 1613950800  Part Numbers 1613-9508-00
Atlas Copco Air Cooler PN: 1613950900  Part Numbers 1613-9509-00
Atlas Copco Air Cooler PN: 1613951000  Part Numbers 1613-9510-00
Atlas Copco Air Cooler PN: 1613951100  Part Numbers 1613-9511-00
Atlas Copco Air Cooler PN: 1613951200  Part Numbers 1613-9512-00
Atlas Copco Air Cooler PN: 1613990900  Part Numbers 1613-9909-00
Atlas Copco Air Cooler PN: 1613991000  Part Numbers 1613-9910-00
Atlas Copco Air Cooler PN: 1614643600  Part Numbers 1614-6436-00
Atlas Copco Air Cooler PN: 1614643700  Part Numbers 1614-6437-00
Atlas Copco Air Cooler PN: 1614675600  Part Numbers 1614-6756-00
Atlas Copco Air Cooler PN: 1614677400  Part Numbers 1614-6774-00
Atlas Copco Air Cooler PN: 1614697800  Part Numbers 1614-6978-00
Atlas Copco Air Cooler PN: 1614698000  Part Numbers 1614-6980-00
Atlas Copco Air Cooler PN: 1614705300  Part Numbers 1614-7053-00
Atlas Copco Air Cooler PN: 1614762200  Part Numbers 1614-7622-00
Atlas Copco Air Cooler PN: 1614781708  Part Numbers 1614-7817-08
Atlas Copco Air Cooler PN: 1614781800  Part Numbers 1614-7818-00
Atlas Copco Air Cooler PN: 1614781803  Part Numbers 1614-7818-03
Atlas Copco Air Cooler PN: 1614782102  Part Numbers 1614-7821-02
Atlas Copco Air Cooler PN: 1614782303  Part Numbers 1614-7823-03
Atlas Copco Air Cooler PN: 1614782700  Part Numbers 1614-7827-00
Atlas Copco Air Cooler PN: 1614826300  Part Numbers 1614-8263-00
Atlas Copco Air Cooler PN: 1614859500  Part Numbers 1614-8595-00
Atlas Copco Air Cooler PN: 1614859600  Part Numbers 1614-8596-00
Atlas Copco Air Cooler PN: 1614862400  Part Numbers 1614-8624-00
Atlas Copco Air Cooler PN: 1614862480  Part Numbers 1614-8624-80
Atlas Copco Air Cooler PN: 1614866008  Part Numbers 1614-8660-08
Atlas Copco Air Cooler PN: 1614866108  Part Numbers 1614-8661-08
Atlas Copco Air Cooler PN: 1614866208  Part Numbers 1614-8662-08
Atlas Copco Air Cooler PN: 1614866308  Part Numbers 1614-8663-08
Atlas Copco Air Cooler PN: 1614866408  Part Numbers 1614-8664-08
Atlas Copco Air Cooler PN: 1614866508  Part Numbers 1614-8665-08
Atlas Copco Air Cooler PN: 1614866608  Part Numbers 1614-8666-08
Atlas Copco Air Cooler PN: 1614866708  Part Numbers 1614-8667-08
Atlas Copco Air Cooler PN: 1614866808  Part Numbers 1614-8668-08
Atlas Copco Air Cooler PN: 1614886900  Part Numbers 1614-8869-00
Atlas Copco Air Cooler PN: 1614896900  Part Numbers 1614-8969-00
Atlas Copco Air Cooler PN: 1614918900  Part Numbers 1614-9189-00
Atlas Copco Air Cooler PN: 1614920100  Part Numbers 1614-9201-00
Atlas Copco Air Cooler PN: 1614935800  Part Numbers 1614-9358-00
Atlas Copco Air Cooler PN: 1614954300  Part Numbers 1614-9543-00
Atlas Copco Air Cooler PN: 1614958000  Part Numbers 1614-9580-00
Atlas Copco Air Cooler PN: 1614958400  Part Numbers 1614-9584-00
Atlas Copco Air Cooler PN: 1614958800  Part Numbers 1614-9588-00
Atlas Copco Air Cooler PN: 1614958900  Part Numbers 1614-9589-00
Atlas Copco Air Cooler PN: 1614959000  Part Numbers 1614-9590-00
Atlas Copco Air Cooler PN: 1615438990  Part Numbers 1615-4389-90
Atlas Copco Air Cooler PN: 1615557390  Part Numbers 1615-5573-90
Atlas Copco Air Cooler PN: 1615663200  Part Numbers 1615-6632-00
Atlas Copco Air Cooler PN: 1615675400  Part Numbers 1615-6754-00
Atlas Copco Air Cooler PN: 1615675601  Part Numbers 1615-6756-01
Atlas Copco Air Cooler PN: 1616502500  Part Numbers 1616-5025-00
Atlas Copco Air Cooler PN: 1617506900  Part Numbers 1617-5069-00
Atlas Copco Air Cooler PN: 1617513300  Part Numbers 1617-5133-00
Atlas Copco Air Cooler PN: 1617526950  Part Numbers 1617-5269-50
Atlas Copco Air Cooler PN: 1617533051  Part Numbers 1617-5330-51
Atlas Copco Air Cooler PN: 1617599800  Part Numbers 1617-5998-00
Atlas Copco Air Cooler PN: 1619754900  Part Numbers 1619-7549-00
Atlas Copco Air Cooler PN: 1621044100  Part Numbers 1621-0441-00
Atlas Copco Air Cooler PN: 1621047982  Part Numbers 1621-0479-82
Atlas Copco Air Cooler PN: 1621054402  Part Numbers 1621-0544-02
Atlas Copco Air Cooler PN: 1621073100  Part Numbers 1621-0731-00
Atlas Copco Air Cooler PN: 1621073200  Part Numbers 1621-0732-00
Atlas Copco Air Cooler PN: 1621075101  Part Numbers 1621-0751-01
Atlas Copco Air Cooler PN: 1621075102  Part Numbers 1621-0751-02
Atlas Copco Air Cooler PN: 1621106700  Part Numbers 1621-1067-00
Atlas Copco Air Cooler PN: 1621106800  Part Numbers 1621-1068-00
Atlas Copco Air Cooler PN: 1621106900  Part Numbers 1621-1069-00
Atlas Copco Air Cooler PN: 1621149100  Part Numbers 1621-1491-00
Atlas Copco Air Cooler PN: 1621203508  Part Numbers 1621-2035-08
Atlas Copco Air Cooler PN: 1621205008  Part Numbers 1621-2050-08
Atlas Copco Air Cooler PN: 1621208308  Part Numbers 1621-2083-08
Atlas Copco Air Cooler PN: 1621209408  Part Numbers 1621-2094-08
Atlas Copco Air Cooler PN: 1621216980  Part Numbers 1621-2169-80
Atlas Copco Air Cooler PN: 1621258200  Part Numbers 1621-2582-00
Atlas Copco Air Cooler PN: 1621267708  Part Numbers 1621-2677-08
Atlas Copco Air Cooler PN: 1621279300  Part Numbers 1621-2793-00
Atlas Copco Air Cooler PN: 1621279600  Part Numbers 1621-2796-00
Atlas Copco Air Cooler PN: 1621279800  Part Numbers 1621-2798-00
Atlas Copco Air Cooler PN: 1621300202  Part Numbers 1621-3002-02
Atlas Copco Air Cooler PN: 1621300208  Part Numbers 1621-3002-08
Atlas Copco Air Cooler PN: 1621315148  Part Numbers 1621-3151-48
Atlas Copco Air Cooler PN: 1621315582  Part Numbers 1621-3155-82
Atlas Copco Air Cooler PN: 1621324811  Part Numbers 1621-3248-11
Atlas Copco Air Cooler PN: 1621324812  Part Numbers 1621-3248-12
Atlas Copco Air Cooler PN: 1621324813  Part Numbers 1621-3248-13
Atlas Copco Air Cooler PN: 1621337212  Part Numbers 1621-3372-12
Atlas Copco Air Cooler PN: 1621337280  Part Numbers 1621-3372-80
Atlas Copco Air Cooler PN: 1621401404  Part Numbers 1621-4014-04
Atlas Copco Air Cooler PN: 1621401405  Part Numbers 1621-4014-05
Atlas Copco Air Cooler PN: 1621401406  Part Numbers 1621-4014-06
Atlas Copco Air Cooler PN: 1621411000  Part Numbers 1621-4110-00
Atlas Copco Air Cooler PN: 1621411100  Part Numbers 1621-4111-00
Atlas Copco Air Cooler PN: 1621411200  Part Numbers 1621-4112-00
Atlas Copco Air Cooler PN: 1621415300  Part Numbers 1621-4153-00
Atlas Copco Air Cooler PN: 1621482200  Part Numbers 1621-4822-00
Atlas Copco Air Cooler PN: 1621485008  Part Numbers 1621-4850-08
Atlas Copco Air Cooler PN: 1621490108  Part Numbers 1621-4901-08
Atlas Copco Air Cooler PN: 1621490618  Part Numbers 1621-4906-18
Atlas Copco Air Cooler PN: 1621495313  Part Numbers 1621-4953-13
Atlas Copco Air Cooler PN: 1621536300  Part Numbers 1621-5363-00
Atlas Copco Air Cooler PN: 1621536400  Part Numbers 1621-5364-00
Atlas Copco Air Cooler PN: 1621536500  Part Numbers 1621-5365-00
Atlas Copco Air Cooler PN: 1621537508  Part Numbers 1621-5375-08
Atlas Copco Air Cooler PN: 1621600101  Part Numbers 1621-6001-01
Atlas Copco Air Cooler PN: 1621600102  Part Numbers 1621-6001-02
Atlas Copco Air Cooler PN: 1621600103  Part Numbers 1621-6001-03
Atlas Copco Air Cooler PN: 1621848700  Part Numbers 1621-8487-00
Atlas Copco Air Cooler PN: 1621850028  Part Numbers 1621-8500-28
Atlas Copco Air Cooler PN: 1621850328  Part Numbers 1621-8503-28
Atlas Copco Air Cooler PN: 1621850382  Part Numbers 1621-8503-82
Atlas Copco Air Cooler PN: 1621850385  Part Numbers 1621-8503-85
Atlas Copco Air Cooler PN: 1621851482  Part Numbers 1621-8514-82
Atlas Copco Air Cooler PN: 1621853700  Part Numbers 1621-8537-00
Atlas Copco Air Cooler PN: 1621853701  Part Numbers 1621-8537-01
Atlas Copco Air Cooler PN: 1621869583  Part Numbers 1621-8695-83
Atlas Copco Air Cooler PN: 1621869593  Part Numbers 1621-8695-93
Atlas Copco Air Cooler PN: 1621869682  Part Numbers 1621-8696-82
Atlas Copco Air Cooler PN: 1621869780  Part Numbers 1621-8697-80
Atlas Copco Air Cooler PN: 1621904500  Part Numbers 1621-9045-00
Atlas Copco Air Cooler PN: 1621912908  Part Numbers 1621-9129-08
Atlas Copco Air Cooler PN: 1621948100  Part Numbers 1621-9481-00
Atlas Copco Air Cooler PN: 1621948800  Part Numbers 1621-9488-00
Atlas Copco Air Cooler PN: 1621992402  Part Numbers 1621-9924-02
Atlas Copco Air Cooler PN: 1621992502  Part Numbers 1621-9925-02
Atlas Copco Air Cooler PN: 1621992508  Part Numbers 1621-9925-08
Atlas Copco Air Cooler PN: 1621992802  Part Numbers 1621-9928-02
Atlas Copco Air Cooler PN: 1621992808  Part Numbers 1621-9928-08
Atlas Copco Air Cooler PN: 1621992902  Part Numbers 1621-9929-02
Atlas Copco Air Cooler PN: 1621992908  Part Numbers 1621-9929-08
Atlas Copco Air Cooler PN: 1621993108  Part Numbers 1621-9931-08
Atlas Copco Air Cooler PN: 1622016300  Part Numbers 1622-0163-00
Atlas Copco Air Cooler PN: 1622018200  Part Numbers 1622-0182-00
Atlas Copco Air Cooler PN: 1622024001  Part Numbers 1622-0240-01
Atlas Copco Air Cooler PN: 1622024003  Part Numbers 1622-0240-03
Atlas Copco Air Cooler PN: 1622059400  Part Numbers 1622-0594-00
Atlas Copco Air Cooler PN: 1622059402  Part Numbers 1622-0594-02
Atlas Copco Air Cooler PN: 1622059407  Part Numbers 1622-0594-07
Atlas Copco Air Cooler PN: 1622059409  Part Numbers 1622-0594-09
Atlas Copco Air Cooler PN: 1622059410  Part Numbers 1622-0594-10
Atlas Copco Air Cooler PN: 1622065800  Part Numbers 1622-0658-00
Atlas Copco Air Cooler PN: 1622094100  Part Numbers 1622-0941-00
Atlas Copco Air Cooler PN: 1622094200  Part Numbers 1622-0942-00
Atlas Copco Air Cooler PN: 1622094300  Part Numbers 1622-0943-00
Atlas Copco Air Cooler PN: 1622094400  Part Numbers 1622-0944-00
Atlas Copco Air Cooler PN: 1622119100  Part Numbers 1622-1191-00
Atlas Copco Air Cooler PN: 1622131400  Part Numbers 1622-1314-00
Atlas Copco Air Cooler PN: 1622131680  Part Numbers 1622-1316-80
Atlas Copco Air Cooler PN: 1622144200  Part Numbers 1622-1442-00
Atlas Copco Air Cooler PN: 1622153000  Part Numbers 1622-1530-00
Atlas Copco Air Cooler PN: 1622160500  Part Numbers 1622-1605-00
Atlas Copco Air Cooler PN: 1622161100  Part Numbers 1622-1611-00
Atlas Copco Air Cooler PN: 1622204020  Part Numbers 1622-2040-20
Atlas Copco Air Cooler PN: 1622218800  Part Numbers 1622-2188-00
Atlas Copco Air Cooler PN: 1622318700  Part Numbers 1622-3187-00
Atlas Copco Air Cooler PN: 1622318800  Part Numbers 1622-3188-00
Atlas Copco Air Cooler PN: 1622318900  Part Numbers 1622-3189-00
Atlas Copco Air Cooler PN: 1622319000  Part Numbers 1622-3190-00
Atlas Copco Air Cooler PN: 1622319100  Part Numbers 1622-3191-00
Atlas Copco Air Cooler PN: 1622330300  Part Numbers 1622-3303-00
Atlas Copco Air Cooler PN: 1622376600  Part Numbers 1622-3766-00
Atlas Copco Air Cooler PN: 1622376710  Part Numbers 1622-3767-10
Atlas Copco Air Cooler PN: 1622376800  Part Numbers 1622-3768-00
Atlas Copco Air Cooler PN: 1622376910  Part Numbers 1622-3769-10
Atlas Copco Air Cooler PN: 1622377000  Part Numbers 1622-3770-00
Atlas Copco Air Cooler PN: 1622377110  Part Numbers 1622-3771-10
Atlas Copco Air Cooler PN: 1622392800  Part Numbers 1622-3928-00
Atlas Copco Air Cooler PN: 1622392900  Part Numbers 1622-3929-00
Atlas Copco Air Cooler PN: 1622393100  Part Numbers 1622-3931-00
Atlas Copco Air Cooler PN: 1622393200  Part Numbers 1622-3932-00
Atlas Copco Air Cooler PN: 1622465280  Part Numbers 1622-4652-80
Atlas Copco Air Cooler PN: 1622465380  Part Numbers 1622-4653-80
Atlas Copco Air Cooler PN: 1622493500  Part Numbers 1622-4935-00
Atlas Copco Air Cooler PN: 1622493900  Part Numbers 1622-4939-00
Atlas Copco Air Cooler PN: 1622499500  Part Numbers 1622-4995-00
Atlas Copco Air Cooler PN: 1622507580  Part Numbers 1622-5075-80
Atlas Copco Air Cooler PN: 1622507780  Part Numbers 1622-5077-80
Atlas Copco Air Cooler PN: 1622533000  Part Numbers 1622-5330-00
Atlas Copco Air Cooler PN: 1622602800  Part Numbers 1622-6028-00
Atlas Copco Air Cooler PN: 1622689700  Part Numbers 1622-6897-00
Atlas Copco Air Cooler PN: 1622689800  Part Numbers 1622-6898-00
Atlas Copco Air Cooler PN: 1622783001  Part Numbers 1622-7830-01
Atlas Copco Air Cooler PN: 1622815080  Part Numbers 1622-8150-80
Atlas Copco Air Cooler PN: 1622877600  Part Numbers 1622-8776-00
Atlas Copco Air Cooler PN: 1622877900  Part Numbers 1622-8779-00
Atlas Copco Air Cooler PN: 1623062708  Part Numbers 1623-0627-08
Atlas Copco Air Cooler PN: 1623063308  Part Numbers 1623-0633-08
Atlas Copco Air Cooler PN: 1623711700  Part Numbers 1623-7117-00
Atlas Copco Air Cooler PN: 1623711800  Part Numbers 1623-7118-00
Atlas Copco Air Cooler PN: 1623711900  Part Numbers 1623-7119-00
Atlas Copco Air Cooler PN: 1623712000  Part Numbers 1623-7120-00
Atlas Copco Air Cooler PN: 1623712100  Part Numbers 1623-7121-00
Atlas Copco Air Cooler PN: 1623712200  Part Numbers 1623-7122-00
Atlas Copco Air Cooler PN: 1625165925  Part Numbers 1625-1659-25
Atlas Copco Air Cooler PN: 1625165926  Part Numbers 1625-1659-26
Atlas Copco Air Cooler PN: 1625165970  Part Numbers 1625-1659-70
Atlas Copco Air Cooler PN: 1625165971  Part Numbers 1625-1659-71
Atlas Copco Air Cooler PN: 1625770800  Part Numbers 1625-7708-00
Atlas Copco Air Cooler PN: 1625770900  Part Numbers 1625-7709-00
Atlas Copco Air Cooler PN: 1625771000  Part Numbers 1625-7710-00
Atlas Copco Air Cooler PN: 1625774400  Part Numbers 1625-7744-00
Atlas Copco Air Cooler PN: 1626074202  Part Numbers 1626-0742-02
Atlas Copco Air Cooler PN: 1626080700  Part Numbers 1626-0807-00
Atlas Copco Air Cooler PN: 1626098200  Part Numbers 1626-0982-00
Atlas Copco Air Cooler PN: 1626106103  Part Numbers 1626-1061-03
Atlas Copco Air Cooler PN: 1626107101  Part Numbers 1626-1071-01
Atlas Copco Air Cooler PN: 1626140900  Part Numbers 1626-1409-00
Atlas Copco Air Cooler PN: 1626140901  Part Numbers 1626-1409-01
Atlas Copco Air Cooler PN: 1901003332  Part Numbers 1901-0033-32
Atlas Copco Air Cooler PN: 1901011943  Part Numbers 1901-0119-43
Atlas Copco Air Cooler PN: 1901012228  Part Numbers 1901-0122-28
Atlas Copco Air Cooler PN: 1901021582  Part Numbers 1901-0215-82
Atlas Copco Air Cooler PN: 1901055185  Part Numbers 1901-0551-85
Atlas Copco Air Cooler PN: 1901061480  Part Numbers 1901-0614-80
Atlas Copco Air Cooler PN: 2202815603  Part Numbers 2202-8156-03
Atlas Copco Air Cooler PN: 2202847101  Part Numbers 2202-8471-01
Atlas Copco Air Cooler PN: 2202854401  Part Numbers 2202-8544-01
Atlas Copco Air Cooler PN: 2205101100  Part Numbers 2205-1011-00
Atlas Copco Air Cooler PN: 2205101200  Part Numbers 2205-1012-00
Atlas Copco Air Cooler PN: 2205101300  Part Numbers 2205-1013-00
Atlas Copco Air Cooler PN: 2205110700  Part Numbers 2205-1107-00
Atlas Copco Air Cooler PN: 2205110800  Part Numbers 2205-1108-00
Atlas Copco Air Cooler PN: 2205117900  Part Numbers 2205-1179-00
Atlas Copco Air Cooler PN: 2205130200  Part Numbers 2205-1302-00
Atlas Copco Air Cooler PN: 2205132700  Part Numbers 2205-1327-00
Atlas Copco Air Cooler PN: 2205132800  Part Numbers 2205-1328-00
Atlas Copco Air Cooler PN: 2205153100  Part Numbers 2205-1531-00
Atlas Copco Air Cooler PN: 2205153200  Part Numbers 2205-1532-00
Atlas Copco Air Cooler PN: 2205153300  Part Numbers 2205-1533-00
Atlas Copco Air Cooler PN: 2205153400  Part Numbers 2205-1534-00
Atlas Copco Air Cooler PN: 2205175427  Part Numbers 2205-1754-27
Atlas Copco Air Cooler PN: 2205178440  Part Numbers 2205-1784-40
Atlas Copco Air Cooler PN: 2205260669  Part Numbers 2205-2606-69
Atlas Copco Air Cooler PN: 2205260670  Part Numbers 2205-2606-70
Atlas Copco Air Cooler PN: 2205260700  Part Numbers 2205-2607-00
Atlas Copco Air Cooler PN: 2205260701  Part Numbers 2205-2607-01
Atlas Copco Air Cooler PN: 2205260703  Part Numbers 2205-2607-03
Atlas Copco Air Cooler PN: 2205260704  Part Numbers 2205-2607-04
Atlas Copco Air Cooler PN: 2205262608  Part Numbers 2205-2626-08
Atlas Copco Air Cooler PN: 2205267602  Part Numbers 2205-2676-02
Atlas Copco Air Cooler PN: 2205267612  Part Numbers 2205-2676-12
Atlas Copco Air Cooler PN: 2205267614  Part Numbers 2205-2676-14
Atlas Copco Air Cooler PN: 2205267753  Part Numbers 2205-2677-53
Atlas Copco Air Cooler PN: 2205489124  Part Numbers 2205-4891-24
Atlas Copco Air Cooler PN: 2205489125  Part Numbers 2205-4891-25
Atlas Copco Air Cooler PN: 2235273000  Part Numbers 2235-2730-00
Atlas Copco Air Cooler PN: 2235522400  Part Numbers 2235-5224-00
Atlas Copco Air Cooler PN: 2235522500  Part Numbers 2235-5225-00
Atlas Copco Air Cooler PN: 2251808093  Part Numbers 2251-8080-93
Atlas Copco Air Cooler PN: 2251808193  Part Numbers 2251-8081-93
Atlas Copco Air Cooler PN: 2252689801  Part Numbers 2252-6898-01
Atlas Copco Air Cooler PN: 2252734701  Part Numbers 2252-7347-01
Atlas Copco Air Cooler PN: 2254074800  Part Numbers 2254-0748-00
Atlas Copco Air Cooler PN: 2255072806  Part Numbers 2255-0728-06
Atlas Copco Air Cooler PN: 2900068100  Part Numbers 2900-0681-00
Atlas Copco Air Cooler PN: 2901009800  Part Numbers 2901-0098-00
Atlas Copco Air Cooler PN: 2901091800  Part Numbers 2901-0918-00
Atlas Copco Air Cooler PN: 2901130012  Part Numbers 2901-1300-12
Atlas Copco Air Cooler PN: 2906097400  Part Numbers 2906-0974-00
Atlas Copco Air Cooler PN: 3003414168  Part Numbers 3003-4141-68
Atlas Copco Air Cooler PN: 3003414268  Part Numbers 3003-4142-68
Atlas Copco Air Cooler PN: 3003801868  Part Numbers 3003-8018-68
Atlas Copco Air Cooler PN: 3003801968  Part Numbers 3003-8019-68
Atlas Copco Air Cooler PN: 3003802268  Part Numbers 3003-8022-68
Atlas Copco Air Cooler PN: 3003803168  Part Numbers 3003-8031-68
Atlas Copco Air Cooler PN: 3003805768  Part Numbers 3003-8057-68
Atlas Copco Air Cooler PN: 3003805868  Part Numbers 3003-8058-68
Atlas Copco Air Cooler PN: 3003806068  Part Numbers 3003-8060-68
Atlas Copco Air Cooler PN: 3003806168  Part Numbers 3003-8061-68
Atlas Copco Air Cooler PN: 3003806368  Part Numbers 3003-8063-68
Atlas Copco Air Cooler PN: 3003806468  Part Numbers 3003-8064-68
Atlas Copco Air Cooler PN: 9771081087  Part Numbers 9771-0810-87
Atlas Copco Air Cooler PN: 9771082058  Part Numbers 9771-0820-58
Atlas Copco Air Cooler PN: 9771082059  Part Numbers 9771-0820-59
Atlas Copco Air Cooler PN: 9771093960  Part Numbers 9771-0939-60
Atlas Copco Air Cooler PN: 9825632308  Part Numbers 9825-6323-08

The Ultimate Catalog for Atlas Copco Air Compressors Aftercooler & Kits 

NOTE: This particular product number might have been replaced by a newer one. Please contact CPMC for the latest updates and availability or the latest catalog. Here below is the search tool with the part numbers and wish it can help you.

Atlas Copco Cooler Catalog with Contact.xlsx

Atlas Copco Air CoolerPart Numbers Part NumbersPart NumbersInquiry
Atlas Copco Air Cooler PN:1091631933 Part Numbers1091-6319-33Get a Quote
Atlas Copco Air Cooler PN:1092000169 Part Numbers1092-0001-69Get a Quote
Atlas Copco Air Cooler PN:1092000400 Part Numbers1092-0004-00Get a Quote
Atlas Copco Air Cooler PN:1092000484 Part Numbers1092-0004-84Get a Quote
Atlas Copco Air Cooler PN:1092000500 Part Numbers1092-0005-00Get a Quote
Atlas Copco Air Cooler PN:1092000783 Part Numbers1092-0007-83Get a Quote
Atlas Copco Air Cooler PN:1092002966 Part Numbers1092-0029-66Get a Quote
Atlas Copco Air Cooler PN:1092002973 Part Numbers1092-0029-73Get a Quote
Atlas Copco Air Cooler PN:1092002974 Part Numbers1092-0029-74Get a Quote
Atlas Copco Air Cooler PN:1092005069 Part Numbers1092-0050-69Get a Quote
Atlas Copco Air Cooler PN:1092005673 Part Numbers1092-0056-73Get a Quote
Atlas Copco Air Cooler PN:1092005674 Part Numbers1092-0056-74Get a Quote
Atlas Copco Air Cooler PN:1092005675 Part Numbers1092-0056-75Get a Quote
Atlas Copco Air Cooler PN:1092005676 Part Numbers1092-0056-76Get a Quote
Atlas Copco Air Cooler PN:1092005677 Part Numbers1092-0056-77Get a Quote
Atlas Copco Air Cooler PN:1092005678 Part Numbers1092-0056-78Get a Quote
Atlas Copco Air Cooler PN:1092006191 Part Numbers1092-0061-91Get a Quote
Atlas Copco Air Cooler PN:1092006192 Part Numbers1092-0061-92Get a Quote
Atlas Copco Air Cooler PN:1092013100 Part Numbers1092-0131-00Get a Quote
Atlas Copco Air Cooler PN:1092034837 Part Numbers1092-0348-37Get a Quote
Atlas Copco Air Cooler PN:1092037208 Part Numbers1092-0372-08Get a Quote
Atlas Copco Air Cooler PN:1092037344 Part Numbers1092-0373-44Get a Quote
Atlas Copco Air Cooler PN:1092040100 Part Numbers1092-0401-00Get a Quote
Atlas Copco Air Cooler PN:1092042325 Part Numbers1092-0423-25Get a Quote
Atlas Copco Air Cooler PN:1092050408 Part Numbers1092-0504-08Get a Quote
Atlas Copco Air Cooler PN:1092067800 Part Numbers1092-0678-00Get a Quote
Atlas Copco Air Cooler PN:1092068000 Part Numbers1092-0680-00Get a Quote
Atlas Copco Air Cooler PN:1092170031 Part Numbers1092-1700-31Get a Quote
Atlas Copco Air Cooler PN:1092170034 Part Numbers1092-1700-34Get a Quote
Atlas Copco Air Cooler PN:1092170037 Part Numbers1092-1700-37Get a Quote
Atlas Copco Air Cooler PN:1092200285 Part Numbers1092-2002-85Get a Quote
Atlas Copco Air Cooler PN:1092200286 Part Numbers1092-2002-86Get a Quote
Atlas Copco Air Cooler PN:1092309900 Part Numbers1092-3099-00Get a Quote
Atlas Copco Air Cooler PN:1092316000 Part Numbers1092-3160-00Get a Quote
Atlas Copco Air Cooler PN:1096001370 Part Numbers1096-0013-70Get a Quote
Atlas Copco Air Cooler PN:1202604500 Part Numbers1202-6045-00Get a Quote
Atlas Copco Air Cooler PN:1202766208 Part Numbers1202-7662-08Get a Quote
Atlas Copco Air Cooler PN:1202772200 Part Numbers1202-7722-00Get a Quote
Atlas Copco Air Cooler PN:1202804092 Part Numbers1202-8040-92Get a Quote
Atlas Copco Air Cooler PN:1202821408 Part Numbers1202-8214-08Get a Quote
Atlas Copco Air Cooler PN:1202915808 Part Numbers1202-9158-08Get a Quote
Atlas Copco Air Cooler PN:1202973500 Part Numbers1202-9735-00Get a Quote
Atlas Copco Air Cooler PN:1202973900 Part Numbers1202-9739-00Get a Quote
Atlas Copco Air Cooler PN:1202984988 Part Numbers1202-9849-88Get a Quote
Atlas Copco Air Cooler PN:1202985088 Part Numbers1202-9850-88Get a Quote
Atlas Copco Air Cooler PN:1202985288 Part Numbers1202-9852-88Get a Quote
Atlas Copco Air Cooler PN:1202992008 Part Numbers1202-9920-08Get a Quote
Atlas Copco Air Cooler PN:1320779420 Part Numbers1320-7794-20Get a Quote
Atlas Copco Air Cooler PN:1420081234 Part Numbers1420-0812-34Get a Quote
Atlas Copco Air Cooler PN:1420081337 Part Numbers1420-0813-37Get a Quote
Atlas Copco Air Cooler PN:1420081890 Part Numbers1420-0818-90Get a Quote
Atlas Copco Air Cooler PN:1420081891 Part Numbers1420-0818-91Get a Quote
Atlas Copco Air Cooler PN:1503286200 Part Numbers1503-2862-00Get a Quote
Atlas Copco Air Cooler PN:1503286300 Part Numbers1503-2863-00Get a Quote
Atlas Copco Air Cooler PN:1503288400 Part Numbers1503-2884-00Get a Quote
Atlas Copco Air Cooler PN:1503312600 Part Numbers1503-3126-00Get a Quote
Atlas Copco Air Cooler PN:1503313400 Part Numbers1503-3134-00Get a Quote
Atlas Copco Air Cooler PN:1604052801 Part Numbers1604-0528-01Get a Quote
Atlas Copco Air Cooler PN:1604110900 Part Numbers1604-1109-00Get a Quote
Atlas Copco Air Cooler PN:1604249501 Part Numbers1604-2495-01Get a Quote
Atlas Copco Air Cooler PN:1604249902 Part Numbers1604-2499-02Get a Quote
Atlas Copco Air Cooler PN:1604267602 Part Numbers1604-2676-02Get a Quote
Atlas Copco Air Cooler PN:1604268001 Part Numbers1604-2680-01Get a Quote
Atlas Copco Air Cooler PN:1604396802 Part Numbers1604-3968-02Get a Quote
Atlas Copco Air Cooler PN:1604396902 Part Numbers1604-3969-02Get a Quote
Atlas Copco Air Cooler PN:1604474700 Part Numbers1604-4747-00Get a Quote
Atlas Copco Air Cooler PN:1604929300 Part Numbers1604-9293-00Get a Quote
Atlas Copco Air Cooler PN:1604929400 Part Numbers1604-9294-00Get a Quote
Atlas Copco Air Cooler PN:1606135400 Part Numbers1606-1354-00Get a Quote
Atlas Copco Air Cooler PN:1606381200 Part Numbers1606-3812-00Get a Quote
Atlas Copco Air Cooler PN:1606381500 Part Numbers1606-3815-00Get a Quote
Atlas Copco Air Cooler PN:1610174500 Part Numbers1610-1745-00Get a Quote
Atlas Copco Air Cooler PN:1610288800 Part Numbers1610-2888-00Get a Quote
Atlas Copco Air Cooler PN:1613421100 Part Numbers1613-4211-00Get a Quote
Atlas Copco Air Cooler PN:1613562500 Part Numbers1613-5625-00Get a Quote
Atlas Copco Air Cooler PN:1613679200 Part Numbers1613-6792-00Get a Quote
Atlas Copco Air Cooler PN:1613688800 Part Numbers1613-6888-00Get a Quote
Atlas Copco Air Cooler PN:1613688900 Part Numbers1613-6889-00Get a Quote
Atlas Copco Air Cooler PN:1613702288 Part Numbers1613-7022-88Get a Quote
Atlas Copco Air Cooler PN:1613737300 Part Numbers1613-7373-00Get a Quote
Atlas Copco Air Cooler PN:1613782202 Part Numbers1613-7822-02Get a Quote
Atlas Copco Air Cooler PN:1613782203 Part Numbers1613-7822-03Get a Quote
Atlas Copco Air Cooler PN:1613830300 Part Numbers1613-8303-00Get a Quote
Atlas Copco Air Cooler PN:1613830400 Part Numbers1613-8304-00Get a Quote
Atlas Copco Air Cooler PN:1613836400 Part Numbers1613-8364-00Get a Quote
Atlas Copco Air Cooler PN:1613836402 Part Numbers1613-8364-02Get a Quote
Atlas Copco Air Cooler PN:1613836403 Part Numbers1613-8364-03Get a Quote
Atlas Copco Air Cooler PN:1613836500 Part Numbers1613-8365-00Get a Quote
Atlas Copco Air Cooler PN:1613836502 Part Numbers1613-8365-02Get a Quote
Atlas Copco Air Cooler PN:1613836600 Part Numbers1613-8366-00Get a Quote
Atlas Copco Air Cooler PN:1613836602 Part Numbers1613-8366-02Get a Quote
Atlas Copco Air Cooler PN:1613836603 Part Numbers1613-8366-03Get a Quote
Atlas Copco Air Cooler PN:1613874488 Part Numbers1613-8744-88Get a Quote
Atlas Copco Air Cooler PN:1613875086 Part Numbers1613-8750-86Get a Quote
Atlas Copco Air Cooler PN:1613875088 Part Numbers1613-8750-88Get a Quote
Atlas Copco Air Cooler PN:1613950700 Part Numbers1613-9507-00Get a Quote
Atlas Copco Air Cooler PN:1613950800 Part Numbers1613-9508-00Get a Quote
Atlas Copco Air Cooler PN:1613950900 Part Numbers1613-9509-00Get a Quote
Atlas Copco Air Cooler PN:1613951000 Part Numbers1613-9510-00Get a Quote
Atlas Copco Air Cooler PN:1613951100 Part Numbers1613-9511-00Get a Quote
Atlas Copco Air Cooler PN:1613951200 Part Numbers1613-9512-00Get a Quote
Atlas Copco Air Cooler PN:1613990900 Part Numbers1613-9909-00Get a Quote
Atlas Copco Air Cooler PN:1613991000 Part Numbers1613-9910-00Get a Quote
Atlas Copco Air Cooler PN:1614643600 Part Numbers1614-6436-00Get a Quote
Atlas Copco Air Cooler PN:1614643700 Part Numbers1614-6437-00Get a Quote
Atlas Copco Air Cooler PN:1614675600 Part Numbers1614-6756-00Get a Quote
Atlas Copco Air Cooler PN:1614677400 Part Numbers1614-6774-00Get a Quote
Atlas Copco Air Cooler PN:1614697800 Part Numbers1614-6978-00Get a Quote
Atlas Copco Air Cooler PN:1614698000 Part Numbers1614-6980-00Get a Quote
Atlas Copco Air Cooler PN:1614705300 Part Numbers1614-7053-00Get a Quote
Atlas Copco Air Cooler PN:1614762200 Part Numbers1614-7622-00Get a Quote
Atlas Copco Air Cooler PN:1614781708 Part Numbers1614-7817-08Get a Quote
Atlas Copco Air Cooler PN:1614781800 Part Numbers1614-7818-00Get a Quote
Atlas Copco Air Cooler PN:1614781803 Part Numbers1614-7818-03Get a Quote
Atlas Copco Air Cooler PN:1614782102 Part Numbers1614-7821-02Get a Quote
Atlas Copco Air Cooler PN:1614782303 Part Numbers1614-7823-03Get a Quote
Atlas Copco Air Cooler PN:1614782700 Part Numbers1614-7827-00Get a Quote
Atlas Copco Air Cooler PN:1614826300 Part Numbers1614-8263-00Get a Quote
Atlas Copco Air Cooler PN:1614859500 Part Numbers1614-8595-00Get a Quote
Atlas Copco Air Cooler PN:1614859600 Part Numbers1614-8596-00Get a Quote
Atlas Copco Air Cooler PN:1614862400 Part Numbers1614-8624-00Get a Quote
Atlas Copco Air Cooler PN:1614862480 Part Numbers1614-8624-80Get a Quote
Atlas Copco Air Cooler PN:1614866008 Part Numbers1614-8660-08Get a Quote
Atlas Copco Air Cooler PN:1614866108 Part Numbers1614-8661-08Get a Quote
Atlas Copco Air Cooler PN:1614866208 Part Numbers1614-8662-08Get a Quote
Atlas Copco Air Cooler PN:1614866308 Part Numbers1614-8663-08Get a Quote
Atlas Copco Air Cooler PN:1614866408 Part Numbers1614-8664-08Get a Quote
Atlas Copco Air Cooler PN:1614866508 Part Numbers1614-8665-08Get a Quote
Atlas Copco Air Cooler PN:1614866608 Part Numbers1614-8666-08Get a Quote
Atlas Copco Air Cooler PN:1614866708 Part Numbers1614-8667-08Get a Quote
Atlas Copco Air Cooler PN:1614866808 Part Numbers1614-8668-08Get a Quote
Atlas Copco Air Cooler PN:1614886900 Part Numbers1614-8869-00Get a Quote
Atlas Copco Air Cooler PN:1614896900 Part Numbers1614-8969-00Get a Quote
Atlas Copco Air Cooler PN:1614918900 Part Numbers1614-9189-00Get a Quote
Atlas Copco Air Cooler PN:1614920100 Part Numbers1614-9201-00Get a Quote
Atlas Copco Air Cooler PN:1614935800 Part Numbers1614-9358-00Get a Quote
Atlas Copco Air Cooler PN:1614954300 Part Numbers1614-9543-00Get a Quote
Atlas Copco Air Cooler PN:1614958000 Part Numbers1614-9580-00Get a Quote
Atlas Copco Air Cooler PN:1614958400 Part Numbers1614-9584-00Get a Quote
Atlas Copco Air Cooler PN:1614958800 Part Numbers1614-9588-00Get a Quote
Atlas Copco Air Cooler PN:1614958900 Part Numbers1614-9589-00Get a Quote
Atlas Copco Air Cooler PN:1614959000 Part Numbers1614-9590-00Get a Quote
Atlas Copco Air Cooler PN:1615438990 Part Numbers1615-4389-90Get a Quote
Atlas Copco Air Cooler PN:1615557390 Part Numbers1615-5573-90Get a Quote
Atlas Copco Air Cooler PN:1615663200 Part Numbers1615-6632-00Get a Quote
Atlas Copco Air Cooler PN:1615675400 Part Numbers1615-6754-00Get a Quote
Atlas Copco Air Cooler PN:1615675601 Part Numbers1615-6756-01Get a Quote
Atlas Copco Air Cooler PN:1616502500 Part Numbers1616-5025-00Get a Quote
Atlas Copco Air Cooler PN:1617506900 Part Numbers1617-5069-00Get a Quote
Atlas Copco Air Cooler PN:1617513300 Part Numbers1617-5133-00Get a Quote
Atlas Copco Air Cooler PN:1617526950 Part Numbers1617-5269-50Get a Quote
Atlas Copco Air Cooler PN:1617533051 Part Numbers1617-5330-51Get a Quote
Atlas Copco Air Cooler PN:1617599800 Part Numbers1617-5998-00Get a Quote
Atlas Copco Air Cooler PN:1619754900 Part Numbers1619-7549-00Get a Quote
Atlas Copco Air Cooler PN:1621044100 Part Numbers1621-0441-00Get a Quote
Atlas Copco Air Cooler PN:1621047982 Part Numbers1621-0479-82Get a Quote
Atlas Copco Air Cooler PN:1621054402 Part Numbers1621-0544-02Get a Quote
Atlas Copco Air Cooler PN:1621073100 Part Numbers1621-0731-00Get a Quote
Atlas Copco Air Cooler PN:1621073200 Part Numbers1621-0732-00Get a Quote
Atlas Copco Air Cooler PN:1621075101 Part Numbers1621-0751-01Get a Quote
Atlas Copco Air Cooler PN:1621075102 Part Numbers1621-0751-02Get a Quote
Atlas Copco Air Cooler PN:1621106700 Part Numbers1621-1067-00Get a Quote
Atlas Copco Air Cooler PN:1621106800 Part Numbers1621-1068-00Get a Quote
Atlas Copco Air Cooler PN:1621106900 Part Numbers1621-1069-00Get a Quote
Atlas Copco Air Cooler PN:1621149100 Part Numbers1621-1491-00Get a Quote
Atlas Copco Air Cooler PN:1621203508 Part Numbers1621-2035-08Get a Quote
Atlas Copco Air Cooler PN:1621205008 Part Numbers1621-2050-08Get a Quote
Atlas Copco Air Cooler PN:1621208308 Part Numbers1621-2083-08Get a Quote
Atlas Copco Air Cooler PN:1621209408 Part Numbers1621-2094-08Get a Quote
Atlas Copco Air Cooler PN:1621216980 Part Numbers1621-2169-80Get a Quote
Atlas Copco Air Cooler PN:1621258200 Part Numbers1621-2582-00Get a Quote
Atlas Copco Air Cooler PN:1621267708 Part Numbers1621-2677-08Get a Quote
Atlas Copco Air Cooler PN:1621279300 Part Numbers1621-2793-00Get a Quote
Atlas Copco Air Cooler PN:1621279600 Part Numbers1621-2796-00Get a Quote
Atlas Copco Air Cooler PN:1621279800 Part Numbers1621-2798-00Get a Quote
Atlas Copco Air Cooler PN:1621300202 Part Numbers1621-3002-02Get a Quote
Atlas Copco Air Cooler PN:1621300208 Part Numbers1621-3002-08Get a Quote
Atlas Copco Air Cooler PN:1621315148 Part Numbers1621-3151-48Get a Quote
Atlas Copco Air Cooler PN:1621315582 Part Numbers1621-3155-82Get a Quote
Atlas Copco Air Cooler PN:1621324811 Part Numbers1621-3248-11Get a Quote
Atlas Copco Air Cooler PN:1621324812 Part Numbers1621-3248-12Get a Quote
Atlas Copco Air Cooler PN:1621324813 Part Numbers1621-3248-13Get a Quote
Atlas Copco Air Cooler PN:1621337212 Part Numbers1621-3372-12Get a Quote
Atlas Copco Air Cooler PN:1621337280 Part Numbers1621-3372-80Get a Quote
Atlas Copco Air Cooler PN:1621401404 Part Numbers1621-4014-04Get a Quote
Atlas Copco Air Cooler PN:1621401405 Part Numbers1621-4014-05Get a Quote
Atlas Copco Air Cooler PN:1621401406 Part Numbers1621-4014-06Get a Quote
Atlas Copco Air Cooler PN:1621411000 Part Numbers1621-4110-00Get a Quote
Atlas Copco Air Cooler PN:1621411100 Part Numbers1621-4111-00Get a Quote
Atlas Copco Air Cooler PN:1621411200 Part Numbers1621-4112-00Get a Quote
Atlas Copco Air Cooler PN:1621415300 Part Numbers1621-4153-00Get a Quote
Atlas Copco Air Cooler PN:1621482200 Part Numbers1621-4822-00Get a Quote
Atlas Copco Air Cooler PN:1621485008 Part Numbers1621-4850-08Get a Quote
Atlas Copco Air Cooler PN:1621490108 Part Numbers1621-4901-08Get a Quote
Atlas Copco Air Cooler PN:1621490618 Part Numbers1621-4906-18Get a Quote
Atlas Copco Air Cooler PN:1621495313 Part Numbers1621-4953-13Get a Quote
Atlas Copco Air Cooler PN:1621536300 Part Numbers1621-5363-00Get a Quote
Atlas Copco Air Cooler PN:1621536400 Part Numbers1621-5364-00Get a Quote
Atlas Copco Air Cooler PN:1621536500 Part Numbers1621-5365-00Get a Quote
Atlas Copco Air Cooler PN:1621537508 Part Numbers1621-5375-08Get a Quote
Atlas Copco Air Cooler PN:1621600101 Part Numbers1621-6001-01Get a Quote
Atlas Copco Air Cooler PN:1621600102 Part Numbers1621-6001-02Get a Quote
Atlas Copco Air Cooler PN:1621600103 Part Numbers1621-6001-03Get a Quote
Atlas Copco Air Cooler PN:1621848700 Part Numbers1621-8487-00Get a Quote
Atlas Copco Air Cooler PN:1621850028 Part Numbers1621-8500-28Get a Quote
Atlas Copco Air Cooler PN:1621850328 Part Numbers1621-8503-28Get a Quote
Atlas Copco Air Cooler PN:1621850382 Part Numbers1621-8503-82Get a Quote
Atlas Copco Air Cooler PN:1621850385 Part Numbers1621-8503-85Get a Quote
Atlas Copco Air Cooler PN:1621851482 Part Numbers1621-8514-82Get a Quote
Atlas Copco Air Cooler PN:1621853700 Part Numbers1621-8537-00Get a Quote
Atlas Copco Air Cooler PN:1621853701 Part Numbers1621-8537-01Get a Quote
Atlas Copco Air Cooler PN:1621869583 Part Numbers1621-8695-83Get a Quote
Atlas Copco Air Cooler PN:1621869593 Part Numbers1621-8695-93Get a Quote
Atlas Copco Air Cooler PN:1621869682 Part Numbers1621-8696-82Get a Quote
Atlas Copco Air Cooler PN:1621869780 Part Numbers1621-8697-80Get a Quote
Atlas Copco Air Cooler PN:1621904500 Part Numbers1621-9045-00Get a Quote
Atlas Copco Air Cooler PN:1621912908 Part Numbers1621-9129-08Get a Quote
Atlas Copco Air Cooler PN:1621948100 Part Numbers1621-9481-00Get a Quote
Atlas Copco Air Cooler PN:1621948800 Part Numbers1621-9488-00Get a Quote
Atlas Copco Air Cooler PN:1621992402 Part Numbers1621-9924-02Get a Quote
Atlas Copco Air Cooler PN:1621992502 Part Numbers1621-9925-02Get a Quote
Atlas Copco Air Cooler PN:1621992508 Part Numbers1621-9925-08Get a Quote
Atlas Copco Air Cooler PN:1621992802 Part Numbers1621-9928-02Get a Quote
Atlas Copco Air Cooler PN:1621992808 Part Numbers1621-9928-08Get a Quote
Atlas Copco Air Cooler PN:1621992902 Part Numbers1621-9929-02Get a Quote
Atlas Copco Air Cooler PN:1621992908 Part Numbers1621-9929-08Get a Quote
Atlas Copco Air Cooler PN:1621993108 Part Numbers1621-9931-08Get a Quote
Atlas Copco Air Cooler PN:1622016300 Part Numbers1622-0163-00Get a Quote
Atlas Copco Air Cooler PN:1622018200 Part Numbers1622-0182-00Get a Quote
Atlas Copco Air Cooler PN:1622024001 Part Numbers1622-0240-01Get a Quote
Atlas Copco Air Cooler PN:1622024003 Part Numbers1622-0240-03Get a Quote
Atlas Copco Air Cooler PN:1622059400 Part Numbers1622-0594-00Get a Quote
Atlas Copco Air Cooler PN:1622059402 Part Numbers1622-0594-02Get a Quote
Atlas Copco Air Cooler PN:1622059407 Part Numbers1622-0594-07Get a Quote
Atlas Copco Air Cooler PN:1622059409 Part Numbers1622-0594-09Get a Quote
Atlas Copco Air Cooler PN:1622059410 Part Numbers1622-0594-10Get a Quote
Atlas Copco Air Cooler PN:1622065800 Part Numbers1622-0658-00Get a Quote
Atlas Copco Air Cooler PN:1622094100 Part Numbers1622-0941-00Get a Quote
Atlas Copco Air Cooler PN:1622094200 Part Numbers1622-0942-00Get a Quote
Atlas Copco Air Cooler PN:1622094300 Part Numbers1622-0943-00Get a Quote
Atlas Copco Air Cooler PN:1622094400 Part Numbers1622-0944-00Get a Quote
Atlas Copco Air Cooler PN:1622119100 Part Numbers1622-1191-00Get a Quote
Atlas Copco Air Cooler PN:1622131400 Part Numbers1622-1314-00Get a Quote
Atlas Copco Air Cooler PN:1622131680 Part Numbers1622-1316-80Get a Quote
Atlas Copco Air Cooler PN:1622144200 Part Numbers1622-1442-00Get a Quote
Atlas Copco Air Cooler PN:1622153000 Part Numbers1622-1530-00Get a Quote
Atlas Copco Air Cooler PN:1622160500 Part Numbers1622-1605-00Get a Quote
Atlas Copco Air Cooler PN:1622161100 Part Numbers1622-1611-00Get a Quote
Atlas Copco Air Cooler PN:1622204020 Part Numbers1622-2040-20Get a Quote
Atlas Copco Air Cooler PN:1622218800 Part Numbers1622-2188-00Get a Quote
Atlas Copco Air Cooler PN:1622318700 Part Numbers1622-3187-00Get a Quote
Atlas Copco Air Cooler PN:1622318800 Part Numbers1622-3188-00Get a Quote
Atlas Copco Air Cooler PN:1622318900 Part Numbers1622-3189-00Get a Quote
Atlas Copco Air Cooler PN:1622319000 Part Numbers1622-3190-00Get a Quote
Atlas Copco Air Cooler PN:1622319100 Part Numbers1622-3191-00Get a Quote
Atlas Copco Air Cooler PN:1622330300 Part Numbers1622-3303-00Get a Quote
Atlas Copco Air Cooler PN:1622376600 Part Numbers1622-3766-00Get a Quote
Atlas Copco Air Cooler PN:1622376710 Part Numbers1622-3767-10Get a Quote
Atlas Copco Air Cooler PN:1622376800 Part Numbers1622-3768-00Get a Quote
Atlas Copco Air Cooler PN:1622376910 Part Numbers1622-3769-10Get a Quote
Atlas Copco Air Cooler PN:1622377000 Part Numbers1622-3770-00Get a Quote
Atlas Copco Air Cooler PN:1622377110 Part Numbers1622-3771-10Get a Quote
Atlas Copco Air Cooler PN:1622392800 Part Numbers1622-3928-00Get a Quote
Atlas Copco Air Cooler PN:1622392900 Part Numbers1622-3929-00Get a Quote
Atlas Copco Air Cooler PN:1622393100 Part Numbers1622-3931-00Get a Quote
Atlas Copco Air Cooler PN:1622393200 Part Numbers1622-3932-00Get a Quote
Atlas Copco Air Cooler PN:1622465280 Part Numbers1622-4652-80Get a Quote
Atlas Copco Air Cooler PN:1622465380 Part Numbers1622-4653-80Get a Quote
Atlas Copco Air Cooler PN:1622493500 Part Numbers1622-4935-00Get a Quote
Atlas Copco Air Cooler PN:1622493900 Part Numbers1622-4939-00Get a Quote
Atlas Copco Air Cooler PN:1622499500 Part Numbers1622-4995-00Get a Quote
Atlas Copco Air Cooler PN:1622507580 Part Numbers1622-5075-80Get a Quote
Atlas Copco Air Cooler PN:1622507780 Part Numbers1622-5077-80Get a Quote
Atlas Copco Air Cooler PN:1622533000 Part Numbers1622-5330-00Get a Quote
Atlas Copco Air Cooler PN:1622602800 Part Numbers1622-6028-00Get a Quote
Atlas Copco Air Cooler PN:1622689700 Part Numbers1622-6897-00Get a Quote
Atlas Copco Air Cooler PN:1622689800 Part Numbers1622-6898-00Get a Quote
Atlas Copco Air Cooler PN:1622783001 Part Numbers1622-7830-01Get a Quote
Atlas Copco Air Cooler PN:1622815080 Part Numbers1622-8150-80Get a Quote
Atlas Copco Air Cooler PN:1622877600 Part Numbers1622-8776-00Get a Quote
Atlas Copco Air Cooler PN:1622877900 Part Numbers1622-8779-00Get a Quote
Atlas Copco Air Cooler PN:1623062708 Part Numbers1623-0627-08Get a Quote
Atlas Copco Air Cooler PN:1623063308 Part Numbers1623-0633-08Get a Quote
Atlas Copco Air Cooler PN:1623711700 Part Numbers1623-7117-00Get a Quote
Atlas Copco Air Cooler PN:1623711800 Part Numbers1623-7118-00Get a Quote
Atlas Copco Air Cooler PN:1623711900 Part Numbers1623-7119-00Get a Quote
Atlas Copco Air Cooler PN:1623712000 Part Numbers1623-7120-00Get a Quote
Atlas Copco Air Cooler PN:1623712100 Part Numbers1623-7121-00Get a Quote
Atlas Copco Air Cooler PN:1623712200 Part Numbers1623-7122-00Get a Quote
Atlas Copco Air Cooler PN:1625165925 Part Numbers1625-1659-25Get a Quote
Atlas Copco Air Cooler PN:1625165926 Part Numbers1625-1659-26Get a Quote
Atlas Copco Air Cooler PN:1625165970 Part Numbers1625-1659-70Get a Quote
Atlas Copco Air Cooler PN:1625165971 Part Numbers1625-1659-71Get a Quote
Atlas Copco Air Cooler PN:1625770800 Part Numbers1625-7708-00Get a Quote
Atlas Copco Air Cooler PN:1625770900 Part Numbers1625-7709-00Get a Quote
Atlas Copco Air Cooler PN:1625771000 Part Numbers1625-7710-00Get a Quote
Atlas Copco Air Cooler PN:1625774400 Part Numbers1625-7744-00Get a Quote
Atlas Copco Air Cooler PN:1626074202 Part Numbers1626-0742-02Get a Quote
Atlas Copco Air Cooler PN:1626080700 Part Numbers1626-0807-00Get a Quote
Atlas Copco Air Cooler PN:1626098200 Part Numbers1626-0982-00Get a Quote
Atlas Copco Air Cooler PN:1626106103 Part Numbers1626-1061-03Get a Quote
Atlas Copco Air Cooler PN:1626107101 Part Numbers1626-1071-01Get a Quote
Atlas Copco Air Cooler PN:1626140900 Part Numbers1626-1409-00Get a Quote
Atlas Copco Air Cooler PN:1626140901 Part Numbers1626-1409-01Get a Quote
Atlas Copco Air Cooler PN:1901003332 Part Numbers1901-0033-32Get a Quote
Atlas Copco Air Cooler PN:1901011943 Part Numbers1901-0119-43Get a Quote
Atlas Copco Air Cooler PN:1901012228 Part Numbers1901-0122-28Get a Quote
Atlas Copco Air Cooler PN:1901021582 Part Numbers1901-0215-82Get a Quote
Atlas Copco Air Cooler PN:1901055185 Part Numbers1901-0551-85Get a Quote
Atlas Copco Air Cooler PN:1901061480 Part Numbers1901-0614-80Get a Quote
Atlas Copco Air Cooler PN:2202815603 Part Numbers2202-8156-03Get a Quote
Atlas Copco Air Cooler PN:2202847101 Part Numbers2202-8471-01Get a Quote
Atlas Copco Air Cooler PN:2202854401 Part Numbers2202-8544-01Get a Quote
Atlas Copco Air Cooler PN:2205101100 Part Numbers2205-1011-00Get a Quote
Atlas Copco Air Cooler PN:2205101200 Part Numbers2205-1012-00Get a Quote
Atlas Copco Air Cooler PN:2205101300 Part Numbers2205-1013-00Get a Quote
Atlas Copco Air Cooler PN:2205110700 Part Numbers2205-1107-00Get a Quote
Atlas Copco Air Cooler PN:2205110800 Part Numbers2205-1108-00Get a Quote
Atlas Copco Air Cooler PN:2205117900 Part Numbers2205-1179-00Get a Quote
Atlas Copco Air Cooler PN:2205130200 Part Numbers2205-1302-00Get a Quote
Atlas Copco Air Cooler PN:2205132700 Part Numbers2205-1327-00Get a Quote
Atlas Copco Air Cooler PN:2205132800 Part Numbers2205-1328-00Get a Quote
Atlas Copco Air Cooler PN:2205153100 Part Numbers2205-1531-00Get a Quote
Atlas Copco Air Cooler PN:2205153200 Part Numbers2205-1532-00Get a Quote
Atlas Copco Air Cooler PN:2205153300 Part Numbers2205-1533-00Get a Quote
Atlas Copco Air Cooler PN:2205153400 Part Numbers2205-1534-00Get a Quote
Atlas Copco Air Cooler PN:2205175427 Part Numbers2205-1754-27Get a Quote
Atlas Copco Air Cooler PN:2205178440 Part Numbers2205-1784-40Get a Quote
Atlas Copco Air Cooler PN:2205260669 Part Numbers2205-2606-69Get a Quote
Atlas Copco Air Cooler PN:2205260670 Part Numbers2205-2606-70Get a Quote
Atlas Copco Air Cooler PN:2205260700 Part Numbers2205-2607-00Get a Quote
Atlas Copco Air Cooler PN:2205260701 Part Numbers2205-2607-01Get a Quote
Atlas Copco Air Cooler PN:2205260703 Part Numbers2205-2607-03Get a Quote
Atlas Copco Air Cooler PN:2205260704 Part Numbers2205-2607-04Get a Quote
Atlas Copco Air Cooler PN:2205262608 Part Numbers2205-2626-08Get a Quote
Atlas Copco Air Cooler PN:2205267602 Part Numbers2205-2676-02Get a Quote
Atlas Copco Air Cooler PN:2205267612 Part Numbers2205-2676-12Get a Quote
Atlas Copco Air Cooler PN:2205267614 Part Numbers2205-2676-14Get a Quote
Atlas Copco Air Cooler PN:2205267753 Part Numbers2205-2677-53Get a Quote
Atlas Copco Air Cooler PN:2205489124 Part Numbers2205-4891-24Get a Quote
Atlas Copco Air Cooler PN:2205489125 Part Numbers2205-4891-25Get a Quote
Atlas Copco Air Cooler PN:2235273000 Part Numbers2235-2730-00Get a Quote
Atlas Copco Air Cooler PN:2235522400 Part Numbers2235-5224-00Get a Quote
Atlas Copco Air Cooler PN:2235522500 Part Numbers2235-5225-00Get a Quote
Atlas Copco Air Cooler PN:2251808093 Part Numbers2251-8080-93Get a Quote
Atlas Copco Air Cooler PN:2251808193 Part Numbers2251-8081-93Get a Quote
Atlas Copco Air Cooler PN:2252689801 Part Numbers2252-6898-01Get a Quote
Atlas Copco Air Cooler PN:2252734701 Part Numbers2252-7347-01Get a Quote
Atlas Copco Air Cooler PN:2254074800 Part Numbers2254-0748-00Get a Quote
Atlas Copco Air Cooler PN:2255072806 Part Numbers2255-0728-06Get a Quote
Atlas Copco Air Cooler PN:2900068100 Part Numbers2900-0681-00Get a Quote
Atlas Copco Air Cooler PN:2901009800 Part Numbers2901-0098-00Get a Quote
Atlas Copco Air Cooler PN:2901091800 Part Numbers2901-0918-00Get a Quote
Atlas Copco Air Cooler PN:2901130012 Part Numbers2901-1300-12Get a Quote
Atlas Copco Air Cooler PN:2906097400 Part Numbers2906-0974-00Get a Quote
Atlas Copco Air Cooler PN:3003414168 Part Numbers3003-4141-68Get a Quote
Atlas Copco Air Cooler PN:3003414268 Part Numbers3003-4142-68Get a Quote
Atlas Copco Air Cooler PN:3003801868 Part Numbers3003-8018-68Get a Quote
Atlas Copco Air Cooler PN:3003801968 Part Numbers3003-8019-68Get a Quote
Atlas Copco Air Cooler PN:3003802268 Part Numbers3003-8022-68Get a Quote
Atlas Copco Air Cooler PN:3003803168 Part Numbers3003-8031-68Get a Quote
Atlas Copco Air Cooler PN:3003805768 Part Numbers3003-8057-68Get a Quote
Atlas Copco Air Cooler PN:3003805868 Part Numbers3003-8058-68Get a Quote
Atlas Copco Air Cooler PN:3003806068 Part Numbers3003-8060-68Get a Quote
Atlas Copco Air Cooler PN:3003806168 Part Numbers3003-8061-68Get a Quote
Atlas Copco Air Cooler PN:3003806368 Part Numbers3003-8063-68Get a Quote
Atlas Copco Air Cooler PN:3003806468 Part Numbers3003-8064-68Get a Quote
Atlas Copco Air Cooler PN:9771081087 Part Numbers9771-0810-87Get a Quote
Atlas Copco Air Cooler PN:9771082058 Part Numbers9771-0820-58Get a Quote
Atlas Copco Air Cooler PN:9771082059 Part Numbers9771-0820-59Get a Quote
Atlas Copco Air Cooler PN:9771093960 Part Numbers9771-0939-60Get a Quote
Atlas Copco Air Cooler PN:9825632308 Part Numbers9825-6323-08Get a Quote
Chengdu Pudding Mechatronic Co.CPMC updated the latest Atlas Copco Air Cooler parts numbers catalog. Hope you will sort out the part you will need. We will quote to you with our competitive offers soon.

Chengdu Pudding Mechatronic Co.CPMC is a an air compressors and spare parts supplier focusing on export. You can expect better prices for top brands like Atlas Copco, Ingersoll Rand, Sullair, Quincy, CP, Fusheng, BLT and China reputable air compressors brand like Jaguar Air compressor, Kaishan, etc. Send your purchase list with part numbers to sales@aircompressorstrade.com for quotation, we will answer you with full solution.

Leave a Reply

Your email address will not be published. Required fields are marked *

CPMC uses cookies to offer you a better browsing experience. By browsing this website, you agree to our use of cookies.